Tracking 29892 objects as of 21-Nov-2024
HD Live streaming from Space Station
objects crossing your sky now

SL-8 DEB

Track SL-8 DEB now!
10-day predictions


NORAD ID: 21332
Int'l Code: 1991-009CP
Perigee: 1,485.8 km
Apogee: 1,731.2 km
Inclination: 74.2 °
Period: 118.2 minutes
Semi major axis: 7979 km
RCS: 0.0428 m2 (small)
Launch date: February 12, 1991
Source: Commonwealth of Independent States (former USSR) (CIS)
Launch site: PLESETSK MISSILE AND SPACE COMPLEX (PKMTR)

Note: This is SATELLITE DEBRIS
Your satellite tracking list
Your tracking list is empty




NASA's NSSDC Master Catalog

Two Line Element Set (TLE):
1 21332U 91009CP  24325.84824282  .00000501  00000-0  49266-2 0  9999
2 21332  74.1959 115.8542 0153766 349.5430 167.3677 12.17969792449906
Source of the keplerian elements: AFSPC